Location: Bear Trap Landing
(45.2437°N, 67.7928°W)
Time: 15:05:23
(UTC+00:00)

Envisat - Pass Details

Date: 10 March 2021
Orbit: 764 x 766 km, 98.1° (Epoch: 17 April)

Event Time Altitude Azimuth Distance (km) Brightness Sun altitude
Rises 08:59:35 0° 28° (NNE) 3,242 6.9 -20.5°
Reaches altitude 10° 09:02:38 10° 47° (NE) 2,310 6.4 -20.0°
Maximum altitude 09:06:05 18° 90° (E) 1,805 5.9 -19.4°
Drops below altitude 10° 09:09:31 10° 133° (SE) 2,297 5.9 -18.9°
Sets 09:12:31 0° 152° (SSE) 3,217 6.4 -18.3°
